Flag for U.S.A. Weather past 2 weeks in Jacksonville, Florida, U.S.A.

Now
93 °F

Scattered clouds.


Feels Like: 102 °F
Forecast: 75 / 93 °F
Wind: 8 mph from Southeast

Location: Jacksonville Naval Air Station

Current Time: Jul 30, 2015 at 4:24:25 PM

Latest Report: Jul 30, 2015 at 3:53 PM


Visibility: 10 mi

Pressure: 29.90 "Hg

Humidity: 52%

Dew point: 73 °F

Location of JacksonvilleLocation

Historic Weather in Jacksonville — Graph

°F

Jacksonville temperature yesterday

Maximum temperature yesterday: 98 °F (at 2:53 PM)
Minimum temperature yesterday: 80 °F (at 4:53 AM)
Average temperature yesterday: 87 °F

Past Weeks' High & Low Weather Summary

 TemperatureHumidityPressure
High100 °F (Jul 23, 3:53 PM)88% (Jul 24, 5:53 AM)30.04 "Hg (Jul 24, 5:53 AM)
Low77 °F (Jul 24, 4:53 AM)37% (Jul 23, 4:53 PM)29.85 "Hg (Jul 26, 3:53 AM)
Average85 °F70%29.94 "Hg
* Reported Jul 15 2:53 PM — Jul 30 2:53 PM, Jacksonville, Weather by CustomWeather, © 2015

Note: Actual official high and low records may vary slightly from our data, if they occured in-between our weather recording intervals... More about our weather records

Advertising

Jacksonville weather history for previous 24 hours

 ConditionsComfort  
Time TempWeatherWind HumidityBarometerVisibility
2:53 PM
Thu, Jul 30
92 °FScattered clouds.8 mph52%29.93 "Hg10 mi
1:53 PM92 °FScattered clouds.7 mph52%29.96 "Hg10 mi
12:53 PM89 °FScattered clouds.7 mph57%29.98 "Hg10 mi
11:53 AM88 °FScattered clouds.9 mph59%29.99 "Hg9 mi
10:53 AM85 °FScattered clouds.No wind68%29.99 "Hg9 mi
9:53 AM81 °FLow clouds.No wind77%29.98 "Hg7 mi
8:53 AM78 °FFog.3 mph87%29.96 "Hg2 mi
7:53 AM77 °FFog.3 mph88%29.96 "Hg1 mi
6:53 AM77 °FFog.8 mph88%29.94 "Hg0 mi
5:53 AM78 °FPassing clouds.8 mph84%29.93 "Hg9 mi
4:53 AM79 °FPassing clouds.6 mph82%29.92 "Hg10 mi
4:00 AM79 °FPassing clouds.No wind82%29.93 "Hg10 mi
2:53 AM79 °FClear.5 mph82%29.93 "Hg10 mi
1:53 AM80 °FClear.3 mph79%29.95 "Hg10 mi
12:53 AM81 °FClear.6 mph74%29.97 "Hg10 mi
11:53 PM
Wed, Jul 29
81 °FClear.5 mph77%29.97 "Hg10 mi
10:53 PM82 °FPassing clouds.6 mph72%29.96 "Hg10 mi
9:53 PM83 °FPartly cloudy.9 mph72%29.95 "Hg10 mi
8:53 PM85 °FScattered clouds.12 mph68%29.95 "Hg10 mi
7:53 PM90 °FPartly sunny.8 mph48%29.95 "Hg10 mi
6:53 PM91 °FScattered clouds.9 mph50%29.92 "Hg10 mi
5:53 PM92 °FPartly sunny.10 mph47%29.91 "Hg10 mi
4:53 PM95 °FPartly sunny.13 mph39%29.90 "Hg10 mi
Weather by CustomWeather, © 2015

See weather overviewHow to use our weather pages